Regional Weather Roundup
Issued by NWS Albany, NY

Home | Current Version | Previous Version | Text Only | Print | Product List | Glossary On
Versions: 1 2 3 4 5 6 7 8 9 10 11 12 13 14 15 16 17 18 19 20 21 22 23 24 25 26 27 28 29 30 31 32 33 34 35 36 37 38 39 40 41 42 43 44 45 46 47 48 49 50
161
ASUS41 KALY 200510
RWRALY

NEW YORK STATE HOURLY WEATHER ROUNDUP
NATIONAL WEATHER SERVICE ALBANY NY
1200 AM EST FRI JAN 20 2017

NOTE: "FAIR" INDICATES FEW OR NO CLOUDS BELOW 12,000 FEET WITH NO
SIGNIFICANT WEATHER AND/OR NO OBSTRUCTIONS TO VISIBILITY.

NYZ032-033-038>043-046>054-057>066-NYZ062>081-082-084-200600-
EAST


CITY           SKY/WX    TMP DP  RH WIND       PRES   REMARKS
ALBANY         CLOUDY    35  32  88 CALM      30.03S
GLENS FALLS    CLOUDY    33  30  88 NW3       30.01F
POUGHKEEPSIE   CLOUDY    38  29  70 NE8       30.02S WCI  32
NEWBURGH       CLOUDY    39  34  81 NE7       30.02  WCI  34
MONTGOMERY     CLOUDY    39  32  76 NE5       30.00F
WHITE PLAINS   CLOUDY    40  31  70 NE3       30.00S
ISLIP          CLOUDY    41  32  70 N7        30.02R
NEW YORK CITY  CLOUDY    43  34  70 E8        30.02S
CENTRAL PARK   CLOUDY    43  33  68 CALM      30.04S
$$

NYZ005>009-017-018-044>046-055-056-200600-
CENTRAL


CITY           SKY/WX    TMP DP  RH WIND       PRES   REMARKS
FULTON         CLOUDY    35  33  92 CALM      30.01S
SYRACUSE       CLOUDY    35  32  88 CALM      30.01F
ROME           CLOUDY    33  33 100 E3        30.02F FOG
ELMIRA         CLOUDY    36  32  85 NE3       29.99S
BINGHAMTON     CLOUDY    32  30  92 CALM      29.96S
MONTICELLO     CLOUDY    34  30  86 E6        29.98F WCI  29
$$

NYZ026>034-041>043-087-200600-
NORTH


CITY           SKY/WX    TMP DP  RH WIND       PRES   REMARKS
WATERTOWN      CLOUDY    35  35 100 CALM      30.00F FOG
FORT DRUM      NOT AVBL
OGDENSBURG     MOCLDY    34  33  99 CALM      30.00F FOG
MASSENA        CLOUDY    34  32  92 CALM      30.02F
SARANAC LAKE   CLOUDY    30  28  92 CALM      29.92F FOG
PLATTSBURGH    CLOUDY    35  30  82 CALM      30.02F
$$

NYZ001>004-010>016-019>021-085-200600-
WEST


CITY           SKY/WX    TMP DP  RH WIND       PRES   REMARKS
NIAGARA FALLS  CLOUDY    35  32  88 CALM      29.96F FOG
BUFFALO        DRIZZLE   34  33  96 CALM      29.96F FOG
DUNKIRK        CLOUDY    34  34 100 E6        29.94F FOG     WCI  29
JAMESTOWN      CLOUDY    34  30  86 SE5       29.90F WCI  30
WELLSVILLE     CLOUDY    35  33  92 S3        29.93F FOG
ROCHESTER      DRIZZLE   35  34  96 SE3       30.00R
PENN YAN       CLOUDY    34  30  85 CALM      29.98F
$$

             KEY
       WCI = WIND CHILL INDEX
       VSB = VISIBILITY
       HX  = HEAT INDEX
$$




USA.gov is the U.S. government's official web portal to all federal, state and local government web resources and services.